Location: Cheyres
(46.8153°N, 6.7877°E)
Time: 14:22:05
(UTC+00:00)

Cosmos 990 Rocket - Pass Details

Date: 27 September 2021
Orbit: 746 x 769 km, 74.0° (Epoch: 24 October)

Event Time Altitude Azimuth Distance (km) Brightness Sun altitude
Rises 21:11:51 0° 248° (WSW) 3,194 7.4 -36.8°
Reaches altitude 10° 21:14:55 10° 266° (W) 2,278 6.8 -37.2°
Maximum altitude 21:18:28 19° 310° (NW) 1,773 6.4 -37.6°
Drops below altitude 10° 21:22:04 10° 354° (N) 2,298 7.0 -38.0°
Sets 21:25:11 0° 13° (NNE) 3,233 7.7 -38.3°
